AirNav   ProFlight Series 2 Aviation Headset
 
 605 users online  

3PS2 Chestnut Street Garage Heliport
Harrisburg, Pennsylvania, USA

GOING TO HARRISBURG?


FAA INFORMATION EFFECTIVE 18 JUNE 2020

Location

FAA Identifier: 3PS2
Lat/Long: 40-15-30.3210N 076-52-46.9040W
40-15.505350N 076-52.781733W
40.2584225,-76.8796956
(estimated)
Elevation: 385 ft. / 117 m (estimated)
Variation: 10W (1985)
Time zone: UTC -4 (UTC -5 during Standard Time)
Zip code: 17101

Heliport Operations

Heliport use: Private use. Permission required prior to landing
Activation date: 03/1987
Control tower: no
ARTCC: NEW YORK CENTER
FSS: WILLIAMSPORT FLIGHT SERVICE STATION
Attendance: UNATNDD
Wind indicator: lighted
Segmented circle: no
Lights: FOR PERIMETER LGTS CALL 717-782-3620

Heliport Communications

WX ASOS at CXY (2.8 nm SE): PHONE 717-770-0880
WX ASOS at MDT (7 nm SE): 118.8 (717-944-1372)
WX ASOS at MUI (18 nm NE): 124.175 (717-861-2536)

Nearby radio navigation aids

VOR radial/distance  VOR name  Freq  Var
HARr117/9.1HARRISBURG VORTAC112.5010W
RAVr227/21.8RAVINE VORTAC114.6011W
LRPr296/28.2LANCASTER VOR/DME117.3009W
SEGr188/31.9SELINSGROVE VOR/DME110.4008W

 
NDB name  Hdg/Dist  Freq  Var  ID
ENOLA064/1.220411WMD -- -..
LATLE061/7.521911WCX -.-. -..-
BELLGROVE245/18.332810WBZJ -... --.. .---

Heliport Services

Runway Information

Helipad H1

Dimensions: 65 x 65 ft. / 20 x 20 m
Surface: concrete
Runway edge lights: PERI
Latitude: 40-15.505350N
Longitude: 076-52.781733W
Elevation: 385.0 ft.
Traffic pattern: leftleft

Heliport Ownership and Management from official FAA records

Ownership: Privately-owned
Owner: UPMC PINNACLE
409 SOUTH FRONT STREET
HARRISBURG, PA 17101
Phone 717-782-3620
Manager: CLARK WOODS
409 SOUTH FRONT STREET
HARRISBURG, PA 17101
Phone 717-782-3620

Additional Remarks

FOR CD CTC HARRISBURG APCH AT 800-932-0712.

Instrument Procedures

There are no published instrument procedures at 3PS2.

Some nearby airports with instrument procedures:

KCXY - Capital City Airport (3 nm SE)
KMDT - Harrisburg International Airport (7 nm SE)
58N - Reigle Field Airport (14 nm E)
N94 - Carlisle Airport (14 nm W)
N71 - Donegal Springs Airpark (17 nm SE)
KMUI - Muir Army Airfield (Fort Indiantown Gap) (18 nm NE)
 
Loc | Ops | Rwys | IFR | FBO | Links
Com | Nav | Svcs | Stats | Notes
Area around 3PS2 (Chestnut Street Garage Heliport)
 
Road maps at: MapQuest Bing Google
 
Aerial photo
No photo
 
Sectional chart

 
Airport distance calculator
Flying to Chestnut Street Garage Heliport? Find the distance to fly.

From to 3PS2

Sunrise and sunset
Times for 11-Jul-2020
 Local
(UTC-4)
 Zulu
(UTC)
Morning civil twilight05:1709:17
Sunrise05:4909:49
Sunset20:3700:37
Evening civil twilight21:0901:09

Current date and time
Zulu (UTC)  11-Jul-2020 04:33:28
Local (UTC-4)  11-Jul-2020 00:33:28
 
METAR
KCXY 
3nm SE 
110356Z AUTO 26006KT 10SM FEW090 23/19 A2972 RMK AO2 SLP063 T02330194
KMDT 
6nm SE 
110356Z 26011KT 10SM SCT090 26/21 A2972 RMK AO2 SLP062 T02560206
KMUI 
17nm NE 
110356Z AUTO 22007KT 10SM CLR 22/21 A2972 RMK AO2 SLP064 T02170207
TAF
KMDT 
6nm SE 
110308Z 1103/1124 00000KT P6SM BKN080 FM110600 00000KT P6SM VCFG BKN050 FM111300 25006KT P6SM BKN050 FM111800 27010KT P6SM VCTS BKN050CB
KMUI 
17nm NE 
101550Z 1015/1117 VRB06KT 9999 BKN025 QNH2989INS BECMG 1015/1016 08012KT 8000 -SHRA OVC025 QNH2988INS TEMPO 1016/1023 VRB15G20KT 9000 -TSRA OVC020CB BECMG 1023/1024 VRB06KT 9000 -SHRA BKN020 QNH2977INS BECMG 1100/1101 VRB06KT 4800 BR BKN030 QNH2961INS BECMG 1113/1114 24010G15KT 9999 NSW BKN040 QNH2964INS TX27/1017Z TN19/1110Z
NOTAMs
Click for the latest NOTAMs
NOTAMs are issued by the DoD/FAA and will open in a separate window not controlled by AirNav.

 

 
 

Would you like to see your business listed on this page?

 If your business provides an interesting product or service to pilots, flight crews, aircraft, or users of the Chestnut Street Garage Heliport, you should consider listing it here.  To start the listing process, click on the button below
 
Add a business
 

Other Pages about Chestnut Street Garage Heliport

Update a link
 
Copyright © AirNav, LLC. All rights reserved. Privacy Policy  Contact